Temp
-34 -34 -33 -33 -33 -32 -32 -32 -31 -31 -30 -30 -30 -29 -29 -28 -28 -27 -27 -27 -28 -27 -27 -27 -27 -27 -26 -25 -25 -25 -25 -24 -24 -24 -23 -23 -22 -22 -21 -21 -20 -19 -18 -18 -17 -17 -16 -16 -15 -15 -15 -15 -15 -14 -14 -15 -15 -15 -15 -15 -15 -15 -15 -14 -14 -14 -14 -14 -14 -13 -14 -14 -14 -14
-35 -34 -34 -34 -34 -33 -33 -32 -32 -31 -30 -30 -30 -29 -29 -28 -28 -27 -27 -27 -27 -28 -27 -27 -27 -27 -26 -26 -25 -25 -25 -24 -24 -24 -24 -23 -23 -22 -22 -21 -21 -20 -19 -18 -18 -17 -16 -16 -16 -15 -15 -15 -15 -15 -15 -15 -15 -15 -15 -15 -15 -15 -15 -15 -15 -15 -15 -15 -14 -14 -14 -14 -14 -14
-35 -35 -35 -35 -34 -34 -34 -33 -33 -32 -31 -31 -30 -30 -29 -29 -28 -28 -27 -27 -27 -28 -28 -27 -27 -27 -27 -26 -26 -25 -25 -24 -24 -24 -24 -23 -23 -22 -22 -21 -21 -20 -20 -19 -18 -18 -17 -16 -16 -16 -15 -15 -15 -15 -15 -15 -15 -15 -15 -16 -15 -15 -15 -15 -15 -15 -15 -15 -14 -15 -15 -14 -14 -14
-35 -35 -35 -35 -35 -35 -34 -34 -33 -33 -33 -32 -31 -30 -30 -29 -28 -28 -27 -27 -27 -27 -28 -27 -27 -27 -27 -26 -26 -25 -25 -25 -24 -24 -24 -24 -23 -23 -22 -22 -21 -21 -20 -19 -19 -18 -18 -17 -16 -16 -16 -16 -16 -16 -15 -15 -15 -15 -15 -16 -16 -16 -15 -15 -15 -15 -15 -15 -15 -15 -15 -15 -14 -14
-36 -36 -36 -36 -35 -35 -35 -34 -34 -33 -33 -33 -32 -31 -30 -29 -29 -28 -27 -27 -27 -27 -28 -28 -27 -27 -27 -27 -26 -25 -25 -25 -25 -24 -24 -24 -23 -23 -22 -22 -21 -21 -20 -20 -19 -19 -18 -17 -17 -17 -16 -16 -16 -16 -16 -16 -15 -15 -16 -16 -16 -16 -15 -15 -15 -15 -15 -15 -15 -15 -15 -15 -15 -15
-36 -36 -36 -36 -36 -35 -35 -34 -34 -34 -33 -33 -32 -32 -31 -30 -29 -29 -28 -27 -27 -27 -28 -28 -27 -27 -27 -27 -26 -26 -25 -25 -25 -24 -24 -24 -24 -23 -22 -22 -21 -21 -21 -20 -20 -19 -19 -18 -18 -17 -17 -17 -17 -16 -16 -16 -16 -16 -16 -16 -16 -16 -16 -15 -15 -15 -15 -15 -15 -15 -15 -15 -15 -15
-36 -37 -37 -36 -36 -36 -35 -35 -35 -34 -34 -33 -33 -32 -32 -31 -30 -29 -28 -27 -27 -27 -28 -28 -28 -27 -27 -27 -27 -26 -25 -25 -25 -25 -24 -24 -24 -23 -23 -22 -22 -21 -21 -21 -20 -20 -19 -19 -18 -18 -18 -17 -17 -17 -17 -16 -16 -16 -16 -16 -17 -16 -16 -16 -15 -15 -15 -15 -15 -15 -15 -15 -15 -15
-37 -37 -37 -36 -36 -36 -36 -36 -35 -35 -35 -34 -33 -33 -32 -31 -31 -30 -29 -28 -27 -27 -28 -28 -28 -28 -27 -27 -27 -26 -26 -25 -25 -25 -24 -24 -24 -24 -23 -22 -22 -21 -21 -21 -21 -20 -20 -19 -19 -19 -18 -18 -18 -17 -17 -17 -17 -16 -16 -17 -17 -17 -16 -16 -15 -16 -16 -16 -16 -15 -15 -15 -15 -15
-37 -37 -37 -36 -36 -37 -37 -37 -37 -36 -36 -35 -34 -34 -33 -32 -32 -31 -29 -28 -27 -27 -28 -28 -28 -28 -27 -27 -27 -27 -26 -26 -25 -25 -25 -24 -24 -24 -23 -23 -22 -22 -21 -21 -21 -20 -20 -20 -19 -19 -19 -18 -18 -18 -17 -17 -17 -17 -17 -17 -17 -17 -16 -16 -16 -16 -16 -16 -16 -16 -16 -16 -15 -15
-37 -37 -37 -37 -37 -37 -38 -38 -38 -38 -37 -37 -35 -35 -34 -33 -32 -31 -30 -29 -28 -28 -28 -28 -28 -28 -28 -28 -28 -27 -27 -26 -25 -25 -25 -24 -24 -24 -24 -23 -22 -22 -21 -21 -21 -21 -20 -20 -20 -19 -19 -19 -18 -18 -18 -17 -17 -17 -17 -17 -17 -17 -17 -17 -17 -16 -16 -16 -16 -16 -16 -16 -16 -15
-37 -37 -37 -37 -37 -38 -38 -38 -38 -38 -38 -37 -37 -36 -35 -34 -33 -32 -31 -29 -28 -28 -28 -28 -28 -28 -28 -28 -28 -28 -27 -26 -26 -25 -25 -24 -24 -24 -24 -23 -23 -22 -22 -21 -21 -21 -21 -20 -20 -20 -19 -19 -19 -18 -18 -17 -17 -17 -17 -18 -18 -17 -17 -17 -17 -16 -16 -16 -16 -16 -16 -16 -16 -15
-37 -37 -37 -37 -37 -38 -39 -39 -39 -39 -39 -38 -37 -36 -36 -35 -34 -32 -31 -30 -29 -28 -28 -28 -28 -28 -28 -28 -28 -28 -27 -26 -26 -25 -25 -24 -24 -24 -24 -24 -23 -22 -22 -21 -21 -21 -21 -20 -20 -20 -20 -19 -19 -19 -18 -18 -18 -17 -18 -18 -18 -18 -17 -17 -17 -16 -16 -16 -16 -16 -15 -15 -16 -15
-37 -37 -37 -37 -38 -38 -39 -39 -39 -39 -39 -39 -38 -37 -36 -35 -34 -33 -32 -30 -29 -29 -29 -29 -28 -28 -28 -28 -28 -28 -27 -27 -26 -26 -25 -25 -24 -24 -24 -24 -23 -23 -22 -22 -21 -21 -21 -21 -20 -20 -20 -20 -19 -19 -18 -18 -18 -18 -18 -18 -18 -18 -18 -17 -17 -16 -16 -16 -16 -16 -15 -15 -15 -15
-38 -38 -38 -37 -38 -38 -39 -39 -39 -39 -39 -39 -38 -37 -37 -36 -35 -33 -32 -31 -30 -30 -29 -29 -29 -28 -28 -28 -28 -28 -27 -27 -26 -26 -25 -25 -25 -24 -24 -24 -23 -23 -23 -22 -22 -21 -21 -21 -21 -20 -20 -20 -19 -19 -19 -18 -18 -18 -18 -18 -18 -18 -18 -17 -17 -16 -16 -16 -16 -16 -16 -16 -15 -15
-38 -38 -38 -37 -38 -38 -39 -39 -39 -39 -39 -38 -38 -37 -36 -35 -35 -34 -33 -32 -31 -30 -29 -29 -29 -28 -28 -28 -28 -28 -27 -27 -26 -26 -25 -25 -25 -24 -24 -24 -23 -23 -23 -22 -22 -22 -21 -21 -21 -20 -20 -20 -20 -19 -19 -19 -19 -18 -18 -18 -18 -17 -17 -17 -17 -17 -16 -16 -16 -16 -16 -16 -16 -16
-38 -38 -38 -37 -38 -38 -39 -39 -39 -38 -38 -38 -37 -37 -36 -36 -35 -34 -33 -33 -32 -30 -30 -29 -28 -28 -28 -28 -28 -28 -27 -27 -27 -26 -26 -25 -25 -25 -24 -24 -23 -23 -23 -23 -22 -22 -22 -21 -21 -21 -20 -20 -20 -19 -19 -19 -19 -19 -18 -18 -18 -17 -17 -17 -17 -17 -16 -16 -16 -16 -16 -16 -16 -16
-38 -38 -37 -37 -38 -38 -38 -38 -38 -38 -38 -38 -37 -37 -36 -36 -36 -35 -34 -33 -32 -31 -29 -29 -28 -28 -28 -28 -28 -28 -28 -27 -27 -26 -26 -26 -25 -25 -24 -24 -24 -23 -23 -23 -22 -22 -22 -22 -21 -21 -21 -20 -20 -19 -19 -19 -19 -19 -18 -18 -18 -18 -17 -17 -17 -17 -16 -16 -16 -16 -16 -16 -16 -15
-38 -37 -37 -37 -38 -38 -38 -38 -38 -38 -38 -37 -37 -37 -37 -36 -36 -36 -35 -34 -32 -31 -29 -29 -29 -29 -28 -28 -28 -28 -28 -27 -27 -27 -26 -26 -26 -25 -24 -24 -24 -23 -23 -23 -23 -22 -22 -22 -22 -21 -21 -20 -20 -20 -19 -19 -19 -19 -18 -18 -18 -18 -17 -17 -17 -17 -16 -16 -16 -15 -15 -16 -16 -16
-38 -38 -37 -37 -38 -38 -38 -38 -38 -38 -37 -37 -37 -37 -37 -36 -36 -36 -35 -34 -32 -31 -30 -29 -29 -29 -29 -29 -28 -28 -28 -28 -27 -27 -27 -26 -26 -26 -25 -24 -24 -24 -23 -23 -23 -22 -22 -22 -22 -22 -21 -20 -20 -20 -19 -19 -19 -19 -18 -18 -17 -18 -17 -17 -17 -17 -17 -16 -16 -15 -15 -16 -16 -16
-37 -38 -37 -37 -37 -38 -38 -38 -38 -38 -37 -37 -37 -37 -37 -36 -36 -36 -35 -34 -32 -31 -30 -30 -30 -30 -29 -29 -28 -28 -28 -28 -28 -27 -27 -27 -26 -26 -25 -25 -24 -24 -24 -23 -23 -23 -22 -22 -22 -22 -21 -21 -20 -20 -19 -19 -19 -19 -19 -18 -17 -17 -17 -17 -17 -17 -17 -16 -16 -16 -16 -16 -16 -16
-37 -37 -37 -37 -37 -38 -38 -38 -38 -38 -37 -37 -37 -37 -36 -36 -36 -35 -35 -34 -33 -32 -31 -31 -30 -30 -29 -29 -29 -28 -28 -28 -28 -28 -27 -27 -27 -26 -25 -25 -24 -24 -24 -23 -23 -23 -23 -22 -22 -22 -21 -21 -20 -20 -20 -19 -19 -19 -19 -18 -18 -17 -17 -17 -17 -17 -17 -17 -17 -16 -17 -17 -17 -17
-37 -37 -37 -37 -37 -37 -38 -38 -38 -38 -37 -37 -37 -37 -36 -36 -36 -35 -35 -35 -34 -32 -32 -31 -31 -30 -30 -29 -29 -28 -28 -28 -28 -28 -28 -27 -26 -26 -25 -25 -25 -24 -24 -24 -23 -23 -23 -23 -22 -22 -22 -21 -20 -20 -20 -20 -19 -19 -19 -19 -18 -18 -17 -18 -17 -17 -17 -17 -17 -17 -17 -17 -17 -17
-36 -36 -37 -37 -37 -37 -37 -37 -37 -37 -37 -37 -37 -36 -36 -36 -36 -35 -35 -35 -34 -33 -32 -32 -31 -30 -30 -29 -29 -29 -29 -29 -29 -28 -28 -27 -27 -26 -26 -25 -25 -24 -24 -24 -23 -23 -23 -23 -22 -22 -22 -21 -21 -20 -20 -20 -20 -19 -19 -19 -19 -18 -18 -18 -17 -17 -17 -17 -17 -17 -17 -17 -18 -17
-36 -36 -36 -36 -37 -37 -37 -37 -37 -37 -37 -37 -36 -36 -36 -36 -35 -35 -35 -35 -34 -34 -33 -32 -32 -31 -30 -30 -29 -29 -30 -29 -29 -29 -28 -27 -27 -26 -26 -25 -25 -24 -24 -24 -24 -24 -23 -23 -23 -22 -22 -21 -21 -20 -20 -20 -20 -19 -19 -19 -19 -19 -18 -18 -18 -17 -17 -17 -17 -17 -17 -17 -18 -17
-36 -36 -36 -36 -36 -36 -37 -37 -37 -37 -37 -37 -36 -36 -36 -35 -35 -35 -35 -35 -34 -34 -33 -33 -32 -31 -30 -30 -30 -30 -30 -30 -29 -29 -28 -27 -27 -27 -26 -26 -25 -25 -24 -24 -24 -24 -24 -23 -23 -22 -22 -22 -21 -21 -21 -20 -20 -20 -20 -19 -19 -19 -18 -18 -18 -18 -17 -17 -17 -18 -18 -18 -18 -17
-36 -36 -36 -36 -36 -36 -36 -37 -37 -37 -37 -37 -36 -36 -36 -35 -35 -35 -35 -35 -34 -34 -33 -32 -32 -31 -30 -30 -30 -30 -30 -30 -29 -29 -28 -28 -27 -27 -27 -26 -26 -25 -25 -24 -24 -24 -24 -23 -23 -23 -22 -22 -22 -21 -21 -21 -21 -20 -20 -20 -19 -19 -19 -18 -18 -18 -18 -17 -17 -17 -18 -18 -18 -18
-36 -36 -35 -36 -36 -36 -36 -36 -37 -37 -37 -37 -36 -36 -36 -35 -35 -35 -35 -34 -34 -33 -33 -32 -32 -31 -31 -31 -30 -30 -30 -30 -29 -29 -28 -28 -27 -27 -27 -26 -26 -26 -25 -25 -25 -24 -24 -24 -23 -23 -23 -22 -22 -22 -21 -21 -21 -21 -20 -20 -20 -19 -19 -18 -18 -18 -18 -18 -17 -17 -17 -18 -18 -18
-35 -35 -35 -35 -36 -36 -36 -36 -36 -37 -36 -36 -36 -36 -36 -36 -35 -35 -35 -34 -33 -33 -33 -32 -32 -31 -31 -31 -30 -30 -30 -30 -29 -29 -28 -28 -27 -27 -27 -26 -26 -26 -26 -25 -25 -25 -24 -24 -24 -23 -23 -22 -22 -22 -22 -21 -21 -21 -21 -20 -20 -20 -19 -19 -19 -19 -18 -18 -18 -18 -18 -17 -18 -18
-35 -35 -35 -35 -35 -36 -36 -36 -36 -36 -36 -36 -36 -36 -36 -36 -35 -35 -35 -34 -33 -33 -33 -32 -32 -31 -31 -31 -30 -30 -30 -30 -29 -29 -28 -28 -28 -27 -27 -27 -26 -26 -26 -26 -25 -25 -25 -24 -24 -24 -23 -23 -22 -22 -22 -22 -21 -21 -21 -21 -20 -20 -20 -19 -19 -19 -19 -18 -18 -18 -18 -18 -18 -18
-35 -35 -35 -35 -35 -35 -35 -36 -36 -36 -36 -36 -36 -36 -36 -36 -35 -35 -34 -34 -33 -33 -33 -32 -32 -31 -31 -31 -30 -30 -30 -30 -29 -29 -29 -28 -28 -27 -27 -27 -26 -26 -26 -26 -25 -25 -25 -25 -24 -24 -24 -23 -23 -23 -22 -22 -22 -21 -21 -21 -20 -20 -20 -20 -19 -19 -19 -19 -19 -18 -18 -18 -18 -18
-35 -35 -36 -36 -36 -35 -35 -35 -35 -36 -36 -36 -36 -36 -36 -36 -35 -35 -34 -34 -34 -33 -33 -32 -32 -31 -31 -30 -30 -30 -30 -30 -29 -29 -29 -28 -28 -28 -27 -27 -27 -26 -26 -26 -26 -25 -25 -25 -25 -24 -24 -24 -23 -23 -23 -23 -22 -22 -21 -21 -21 -20 -20 -20 -20 -19 -20 -19 -19 -19 -19 -18 -18 -18
-34 -34 -35 -35 -36 -35 -35 -35 -35 -35 -36 -36 -36 -36 -36 -36 -35 -35 -34 -34 -34 -33 -33 -32 -32 -32 -31 -31 -30 -30 -30 -30 -30 -29 -29 -29 -28 -28 -28 -27 -27 -27 -26 -26 -26 -26 -25 -25 -25 -25 -24 -24 -24 -23 -23 -23 -23 -22 -22 -21 -21 -20 -20 -20 -20 -20 -19 -19 -19 -19 -19 -19 -19 -18
-34 -34 -34 -34 -35 -35 -35 -35 -35 -35 -35 -35 -36 -36 -36 -36 -36 -35 -35 -34 -34 -33 -33 -32 -32 -32 -31 -31 -31 -30 -30 -30 -30 -29 -29 -29 -29 -28 -28 -28 -27 -27 -27 -26 -26 -26 -25 -25 -25 -25 -24 -24 -24 -24 -23 -23 -23 -23 -22 -22 -22 -21 -21 -20 -20 -20 -19 -19 -19 -19 -19 -19 -19 -19
-34 -34 -34 -34 -34 -35 -35 -35 -35 -35 -35 -35 -35 -35 -35 -35 -35 -35 -35 -34 -33 -33 -33 -33 -32 -32 -31 -31 -31 -31 -31 -30 -30 -30 -29 -29 -29 -29 -28 -28 -28 -27 -27 -27 -27 -26 -26 -26 -25 -25 -25 -24 -24 -24 -24 -24 -23 -23 -23 -23 -22 -22 -21 -21 -20 -20 -20 -20 -20 -19 -19 -19 -19 -19
-34 -34 -34 -34 -34 -34 -35 -35 -35 -35 -35 -35 -35 -35 -35 -35 -35 -35 -34 -34 -33 -33 -33 -33 -32 -32 -32 -31 -31 -31 -31 -30 -30 -30 -29 -29 -29 -29 -29 -28 -28 -28 -27 -27 -27 -27 -26 -26 -26 -25 -25 -25 -24 -24 -24 -24 -24 -23 -23 -23 -23 -22 -22 -21 -21 -21 -20 -20 -20 -20 -19 -19 -19 -19
-34 -34 -34 -34 -34 -34 -34 -35 -35 -35 -35 -35 -35 -35 -35 -35 -35 -34 -34 -34 -33 -33 -33 -33 -32 -32 -32 -31 -31 -31 -31 -31 -30 -30 -30 -29 -29 -29 -29 -29 -28 -28 -28 -28 -27 -27 -27 -26 -26 -26 -25 -25 -25 -24 -24 -24 -24 -24 -24 -23 -23 -23 -23 -22 -22 -21 -21 -21 -21 -21 -20 -20 -20 -19
-34 -34 -34 -34 -34 -34 -34 -34 -34 -35 -35 -35 -35 -34 -34 -34 -34 -34 -34 -34 -34 -33 -33 -32 -32 -32 -32 -32 -31 -31 -31 -31 -31 -30 -30 -30 -29 -29 -29 -29 -29 -28 -28 -28 -28 -27 -27 -27 -26 -26 -26 -25 -25 -25 -24 -24 -24 -24 -24 -24 -24 -23 -23 -23 -23 -22 -22 -22 -21 -21 -21 -21 -21 -20
-34 -34 -34 -34 -34 -34 -34 -34 -34 -34 -34 -34 -34 -34 -34 -34 -34 -34 -34 -34 -33 -33 -33 -33 -32 -32 -32 -32 -31 -31 -31 -31 -31 -30 -30 -30 -30 -29 -29 -29 -29 -29 -28 -28 -28 -28 -27 -27 -27 -27 -26 -26 -26 -25 -25 -25 -24 -24 -24 -24 -24 -24 -24 -23 -23 -23 -23 -23 -22 -22 -22 -22 -22 -22
-34 -34 -34 -34 -34 -34 -34 -34 -34 -34 -34 -34 -34 -34 -34 -34 -34 -34 -34 -34 -33 -33 -33 -33 -32 -32 -32 -32 -31 -31 -31 -31 -31 -31 -30 -30 -30 -29 -29 -29 -29 -29 -29 -28 -28 -28 -28 -27 -27 -27 -27 -26 -26 -26 -25 -25 -25 -25 -24 -24 -24 -24 -24 -24 -24 -23 -23 -23 -23 -23 -23 -23 -23 -22
-34 -34 -34 -34 -34 -34 -34 -34 -34 -34 -34 -34 -34 -34 -34 -34 -34 -34 -34 -34 -33 -33 -33 -33 -32 -32 -32 -32 -31 -31 -31 -31 -31 -30 -30 -30 -30 -30 -29 -29 -29 -29 -29 -28 -28 -28 -28 -28 -27 -27 -27 -27 -26 -26 -26 -26 -25 -25 -25 -24 -24 -24 -24 -24 -24 -24 -24 -23 -23 -23 -23 -23 -23 -23
-34 -34 -34 -34 -34 -34 -34 -34 -34 -34 -34 -34 -34 -34 -34 -34 -34 -34 -34 -34 -33 -33 -33 -33 -32 -32 -32 -32 -31 -31 -31 -31 -31 -30 -30 -30 -30 -30 -30 -29 -29 -29 -29 -29 -28 -28 -28 -28 -28 -28 -27 -27 -27 -27 -26 -26 -26 -26 -25 -25 -25 -24 -24 -24 -24 -24 -24 -24 -24 -23 -23 -23 -23 -23
-34 -34 -34 -34 -34 -34 -34 -34 -34 -34 -34 -34 -34 -34 -34 -34 -34 -34 -34 -33 -33 -33 -33 -33 -33 -32 -32 -32 -31 -31 -31 -31 -31 -30 -30 -30 -30 -30 -30 -29 -29 -29 -29 -29 -29 -28 -28 -28 -28 -28 -28 -28 -27 -27 -27 -27 -26 -26 -26 -25 -25 -25 -25 -24 -24 -24 -24 -24 -23 -23 -23 -23 -23 -23
-33 -34 -34 -34 -34 -34 -34 -35 -35 -34 -34 -34 -34 -34 -34 -34 -34 -34 -34 -33 -33 -33 -33 -33 -33 -32 -32 -32 -32 -31 -31 -31 -31 -31 -30 -30 -30 -30 -30 -30 -29 -29 -29 -29 -29 -29 -28 -28 -28 -28 -28 -28 -28 -27 -27 -27 -27 -26 -26 -26 -26 -25 -25 -25 -25 -24 -24 -24 -24 -24 -23 -23 -23 -23
-33 -34 -34 -34 -34 -34 -34 -34 -35 -35 -35 -34 -34 -34 -34 -34 -34 -34 -34 -34 -33 -33 -33 -33 -33 -33 -32 -32 -32 -32 -31 -31 -31 -31 -31 -30 -30 -30 -30 -30 -30 -29 -29 -29 -29 -29 -29 -29 -28 -28 -28 -28 -28 -28 -28 -27 -27 -27 -27 -26 -26 -26 -26 -25 -25 -25 -25 -24 -24 -24 -24 -24 -24 -23
-33 -33 -34 -34 -34 -34 -34 -34 -34 -35 -35 -35 -35 -35 -34 -34 -34 -34 -34 -34 -33 -33 -33 -33 -33 -33 -33 -32 -32 -32 -32 -31 -31 -31 -31 -31 -30 -30 -30 -30 -30 -30 -29 -29 -29 -29 -29 -29 -29 -28 -28 -28 -28 -28 -28 -28 -28 -27 -27 -27 -26 -26 -26 -26 -26 -25 -25 -25 -25 -24 -24 -24 -24 -24
Height
5210 5209 5208 5207 5208 5207 5207 5208 5209 5211 5214 5216 5220 5224 5230 5236 5244 5252 5260 5269 5277 5281 5286 5294 5302 5306 5311 5318 5325 5332 5341 5348 5352 5358 5365 5373 5380 5388 5395 5402 5410 5419 5428 5436 5444 5452 5460 5468 5476 5483 5490 5498 5505 5513 5522 5530 5537 5543 5548 5554 5561 5567 5570 5575 5580 5584 5589 5594 5601 5608 5613 5617 5621 5624
5201 5200 5199 5197 5196 5196 5196 5197 5197 5198 5201 5204 5207 5211 5217 5223 5230 5239 5247 5257 5267 5271 5277 5287 5294 5298 5303 5309 5316 5324 5333 5339 5345 5351 5358 5366 5373 5380 5387 5395 5403 5411 5419 5428 5435 5444 5452 5460 5468 5475 5482 5490 5497 5504 5513 5522 5529 5535 5541 5546 5554 5560 5563 5568 5573 5577 5583 5591 5597 5602 5608 5612 5616 5619
5194 5192 5190 5189 5187 5187 5187 5187 5187 5187 5189 5192 5195 5199 5204 5210 5218 5225 5233 5245 5256 5262 5269 5279 5286 5290 5295 5302 5307 5316 5325 5332 5338 5345 5351 5358 5366 5373 5380 5388 5396 5404 5412 5420 5428 5435 5444 5452 5460 5467 5474 5482 5489 5496 5505 5513 5520 5527 5534 5540 5546 5551 5555 5561 5567 5571 5578 5587 5592 5596 5602 5606 5609 5615
5187 5185 5183 5181 5179 5179 5178 5178 5178 5178 5178 5180 5184 5188 5192 5199 5206 5212 5221 5234 5245 5253 5261 5269 5276 5282 5287 5293 5300 5309 5317 5325 5332 5338 5345 5352 5358 5365 5373 5382 5390 5398 5405 5412 5420 5428 5436 5444 5452 5459 5466 5474 5481 5488 5496 5505 5512 5519 5526 5533 5539 5543 5547 5554 5560 5566 5572 5580 5586 5590 5596 5600 5604 5610
5182 5180 5177 5175 5173 5172 5171 5170 5170 5170 5170 5171 5174 5178 5182 5188 5195 5201 5210 5223 5235 5245 5252 5259 5267 5273 5279 5286 5294 5302 5310 5318 5325 5332 5339 5345 5352 5360 5368 5375 5383 5391 5398 5405 5413 5421 5428 5436 5444 5452 5459 5466 5473 5480 5488 5496 5503 5510 5519 5526 5532 5537 5542 5547 5554 5560 5566 5573 5580 5585 5590 5598 5603 5607
5177 5175 5172 5170 5168 5166 5164 5163 5163 5162 5163 5164 5166 5170 5173 5179 5185 5192 5200 5212 5225 5236 5243 5250 5259 5266 5272 5280 5288 5295 5303 5310 5317 5325 5332 5339 5346 5354 5361 5368 5376 5384 5391 5397 5405 5413 5421 5428 5436 5444 5451 5458 5465 5472 5480 5488 5495 5502 5511 5518 5524 5531 5537 5542 5547 5553 5560 5568 5575 5580 5584 5593 5599 5603
5174 5171 5168 5165 5163 5161 5158 5157 5156 5155 5156 5157 5159 5162 5165 5171 5177 5183 5191 5202 5216 5227 5234 5242 5251 5258 5265 5275 5282 5289 5296 5303 5310 5319 5326 5333 5340 5347 5354 5362 5369 5377 5384 5390 5398 5406 5413 5421 5428 5436 5444 5451 5458 5465 5472 5479 5487 5494 5502 5510 5516 5523 5530 5536 5541 5547 5555 5562 5569 5574 5579 5586 5592 5597
5171 5168 5164 5161 5159 5156 5154 5152 5151 5150 5150 5151 5153 5155 5158 5164 5169 5176 5184 5194 5206 5218 5225 5234 5245 5251 5259 5269 5276 5282 5290 5296 5304 5313 5320 5327 5334 5341 5348 5355 5362 5370 5377 5384 5391 5398 5406 5413 5421 5428 5436 5443 5451 5458 5465 5472 5479 5486 5494 5502 5509 5515 5522 5529 5535 5541 5548 5556 5562 5568 5574 5580 5586 5591
5167 5165 5161 5158 5155 5152 5150 5148 5147 5147 5147 5147 5148 5150 5153 5158 5163 5170 5177 5186 5198 5210 5218 5228 5238 5246 5255 5264 5270 5276 5284 5290 5298 5306 5313 5321 5328 5335 5342 5349 5356 5363 5371 5378 5385 5392 5399 5406 5413 5421 5428 5436 5443 5451 5458 5465 5471 5478 5487 5494 5500 5507 5515 5523 5529 5535 5541 5548 5556 5562 5568 5574 5580 5586
5165 5162 5158 5155 5152 5150 5148 5146 5146 5146 5145 5145 5146 5148 5150 5154 5159 5164 5171 5180 5191 5203 5212 5222 5233 5242 5250 5258 5264 5270 5277 5284 5291 5299 5307 5315 5322 5329 5336 5343 5350 5357 5365 5372 5379 5386 5393 5400 5407 5415 5422 5429 5437 5444 5451 5458 5464 5471 5479 5487 5493 5500 5508 5515 5522 5529 5535 5541 5549 5557 5563 5569 5573 5579
5162 5159 5156 5153 5150 5148 5146 5145 5145 5145 5145 5145 5146 5147 5149 5152 5156 5161 5167 5175 5186 5198 5207 5217 5228 5237 5245 5252 5258 5264 5270 5277 5285 5293 5301 5309 5317 5324 5331 5338 5344 5351 5358 5366 5373 5380 5386 5393 5401 5408 5416 5423 5430 5437 5444 5451 5458 5465 5472 5480 5486 5493 5501 5509 5517 5523 5528 5535 5543 5550 5557 5562 5566 5571
5160 5157 5154 5151 5148 5147 5146 5145 5145 5145 5146 5146 5146 5147 5148 5151 5154 5158 5164 5172 5182 5193 5203 5212 5222 5231 5239 5245 5252 5258 5265 5273 5280 5288 5296 5304 5312 5319 5326 5332 5338 5345 5352 5359 5366 5373 5380 5387 5394 5402 5409 5416 5423 5430 5437 5445 5452 5459 5466 5473 5480 5485 5492 5503 5513 5518 5522 5528 5536 5543 5550 5555 5559 5565
5159 5156 5153 5150 5148 5146 5145 5146 5146 5146 5147 5147 5147 5148 5149 5150 5153 5157 5162 5170 5179 5188 5197 5207 5217 5226 5233 5240 5247 5254 5261 5269 5276 5283 5291 5299 5306 5313 5320 5326 5332 5339 5346 5353 5360 5367 5374 5381 5388 5395 5403 5411 5417 5424 5431 5439 5446 5453 5460 5468 5475 5480 5485 5495 5506 5512 5516 5522 5528 5535 5542 5548 5553 5558
5159 5155 5152 5149 5147 5146 5146 5146 5147 5147 5148 5149 5149 5149 5150 5151 5154 5157 5162 5169 5176 5185 5194 5203 5213 5221 5229 5236 5244 5251 5258 5265 5272 5279 5287 5294 5301 5307 5314 5321 5327 5334 5340 5347 5354 5361 5368 5375 5382 5389 5397 5404 5411 5418 5425 5433 5440 5447 5454 5462 5469 5475 5480 5488 5499 5506 5510 5515 5521 5527 5534 5541 5546 5551
5159 5155 5152 5149 5147 5146 5146 5147 5148 5149 5150 5151 5151 5151 5152 5153 5156 5159 5163 5168 5174 5182 5191 5200 5208 5217 5226 5235 5242 5250 5256 5263 5269 5276 5283 5290 5296 5302 5310 5317 5324 5330 5336 5343 5350 5356 5363 5370 5377 5384 5390 5397 5404 5412 5419 5426 5433 5440 5447 5455 5463 5470 5476 5483 5491 5498 5503 5508 5514 5519 5526 5533 5539 5545
5160 5156 5152 5150 5148 5147 5147 5148 5149 5150 5152 5152 5153 5153 5154 5155 5158 5160 5164 5168 5174 5182 5190 5199 5208 5217 5226 5234 5242 5249 5255 5261 5267 5273 5280 5286 5292 5299 5306 5313 5320 5326 5331 5338 5344 5351 5357 5365 5371 5378 5384 5391 5398 5405 5412 5419 5426 5433 5441 5449 5457 5464 5472 5478 5484 5491 5497 5503 5508 5512 5518 5525 5531 5538
5160 5157 5153 5150 5148 5148 5148 5149 5150 5152 5153 5154 5155 5156 5157 5159 5161 5163 5165 5169 5176 5183 5192 5202 5212 5220 5227 5234 5241 5247 5253 5259 5264 5270 5277 5283 5289 5296 5302 5309 5315 5320 5326 5332 5339 5345 5352 5359 5366 5372 5378 5384 5391 5399 5405 5413 5420 5428 5435 5443 5450 5458 5465 5472 5478 5484 5490 5496 5502 5506 5511 5517 5524 5531
5160 5157 5154 5151 5149 5149 5149 5151 5152 5153 5154 5156 5157 5158 5160 5162 5164 5166 5167 5171 5177 5185 5194 5204 5213 5220 5227 5234 5240 5246 5252 5257 5262 5268 5274 5280 5286 5292 5299 5305 5310 5316 5322 5328 5334 5340 5346 5353 5360 5366 5372 5378 5385 5392 5400 5407 5414 5422 5429 5436 5444 5451 5458 5465 5473 5478 5484 5490 5496 5500 5504 5510 5516 5522
5161 5158 5155 5153 5151 5150 5151 5153 5154 5154 5156 5158 5159 5161 5162 5164 5166 5168 5171 5174 5179 5186 5196 5204 5212 5218 5225 5232 5239 5244 5250 5255 5260 5265 5271 5277 5283 5289 5294 5300 5306 5312 5318 5324 5329 5335 5341 5348 5354 5360 5367 5373 5379 5386 5394 5401 5408 5416 5423 5430 5437 5445 5452 5459 5466 5473 5478 5484 5489 5493 5498 5503 5508 5514
5163 5160 5157 5154 5153 5152 5153 5154 5155 5156 5158 5159 5161 5163 5165 5166 5169 5171 5174 5178 5183 5189 5197 5204 5211 5218 5224 5231 5236 5242 5248 5252 5257 5262 5268 5274 5280 5285 5291 5297 5303 5308 5314 5320 5325 5331 5336 5342 5349 5355 5362 5368 5374 5381 5388 5395 5402 5410 5417 5424 5431 5438 5445 5452 5460 5467 5472 5478 5482 5487 5492 5497 5501 5505
5164 5162 5159 5156 5155 5155 5155 5156 5157 5158 5159 5161 5163 5165 5167 5169 5171 5174 5177 5181 5185 5191 5198 5204 5211 5217 5223 5229 5234 5240 5245 5250 5255 5260 5266 5272 5278 5283 5288 5294 5300 5305 5310 5316 5321 5327 5332 5337 5343 5350 5356 5363 5369 5375 5382 5389 5396 5403 5411 5417 5424 5430 5438 5446 5453 5460 5467 5472 5476 5481 5486 5490 5494 5498
5166 5163 5161 5158 5157 5157 5158 5159 5159 5160 5161 5163 5165 5167 5169 5172 5174 5177 5180 5183 5188 5193 5199 5205 5210 5216 5222 5227 5233 5238 5244 5248 5253 5258 5264 5270 5275 5280 5286 5291 5296 5301 5306 5311 5317 5322 5327 5332 5338 5344 5350 5357 5363 5370 5376 5383 5390 5397 5404 5411 5418 5423 5430 5439 5446 5452 5460 5466 5471 5476 5480 5484 5488 5491
5167 5165 5162 5160 5159 5158 5159 5160 5161 5162 5163 5164 5167 5169 5172 5174 5176 5179 5182 5186 5190 5195 5200 5205 5210 5215 5221 5226 5231 5237 5242 5247 5251 5256 5261 5267 5272 5278 5282 5287 5292 5297 5302 5307 5312 5317 5322 5327 5333 5339 5345 5352 5359 5365 5371 5378 5385 5391 5398 5405 5411 5417 5423 5431 5439 5445 5452 5459 5465 5470 5475 5479 5482 5486
5169 5167 5164 5162 5161 5160 5161 5162 5163 5164 5165 5166 5168 5171 5173 5176 5178 5181 5184 5187 5191 5195 5200 5204 5209 5214 5219 5224 5230 5235 5240 5245 5250 5254 5259 5264 5270 5275 5280 5285 5289 5294 5298 5303 5308 5313 5317 5323 5328 5334 5341 5347 5354 5360 5366 5372 5379 5386 5392 5398 5405 5411 5417 5424 5432 5438 5445 5452 5458 5464 5469 5474 5478 5482
5171 5169 5167 5165 5163 5162 5162 5163 5165 5166 5167 5168 5170 5172 5175 5177 5179 5181 5184 5187 5190 5194 5199 5204 5208 5213 5218 5224 5229 5234 5239 5244 5248 5251 5256 5262 5267 5272 5277 5282 5286 5291 5296 5300 5305 5309 5314 5319 5324 5330 5336 5342 5349 5355 5360 5366 5373 5379 5386 5392 5398 5404 5411 5417 5425 5432 5438 5445 5452 5457 5463 5469 5474 5478
5173 5171 5169 5167 5165 5164 5163 5164 5166 5168 5169 5170 5172 5174 5176 5178 5180 5182 5184 5187 5190 5194 5199 5203 5208 5213 5218 5223 5228 5233 5238 5242 5245 5249 5254 5259 5264 5268 5273 5277 5282 5287 5292 5297 5301 5306 5311 5315 5320 5325 5331 5337 5343 5349 5355 5360 5367 5373 5380 5386 5392 5398 5405 5410 5417 5424 5431 5438 5445 5452 5458 5463 5468 5472
5175 5173 5171 5169 5167 5166 5165 5165 5167 5169 5170 5172 5173 5175 5177 5179 5181 5183 5185 5188 5191 5194 5199 5203 5207 5212 5217 5222 5226 5231 5236 5240 5244 5248 5252 5256 5261 5265 5269 5273 5278 5282 5287 5292 5297 5302 5307 5311 5316 5321 5327 5332 5337 5343 5349 5355 5361 5367 5373 5380 5386 5392 5398 5404 5410 5417 5424 5431 5438 5444 5451 5456 5461 5466
5177 5175 5173 5171 5169 5168 5167 5167 5168 5170 5172 5173 5175 5176 5178 5180 5182 5184 5186 5189 5192 5195 5199 5203 5207 5211 5216 5221 5225 5230 5235 5239 5243 5247 5251 5255 5259 5262 5266 5270 5274 5279 5283 5288 5292 5297 5302 5307 5312 5317 5322 5327 5332 5338 5344 5349 5355 5361 5367 5373 5379 5386 5392 5398 5403 5409 5417 5423 5429 5435 5442 5449 5455 5460
5180 5177 5174 5173 5171 5170 5169 5169 5169 5170 5172 5174 5176 5177 5179 5181 5183 5185 5187 5190 5193 5196 5200 5203 5207 5211 5216 5220 5224 5229 5234 5238 5242 5246 5249 5253 5256 5261 5265 5269 5272 5276 5281 5285 5289 5293 5298 5302 5307 5312 5317 5322 5327 5332 5338 5343 5349 5355 5361 5367 5373 5379 5385 5391 5396 5402 5409 5416 5422 5428 5434 5441 5447 5453
5182 5179 5176 5174 5173 5172 5171 5170 5170 5171 5172 5174 5176 5178 5180 5181 5183 5185 5188 5191 5193 5196 5200 5203 5207 5211 5215 5219 5224 5228 5233 5237 5241 5244 5247 5251 5255 5259 5263 5267 5270 5274 5278 5282 5286 5290 5294 5299 5303 5308 5312 5317 5322 5327 5332 5337 5343 5349 5354 5360 5367 5373 5379 5385 5390 5395 5401 5408 5414 5420 5426 5432 5438 5444
5184 5181 5178 5176 5175 5174 5173 5172 5172 5172 5172 5174 5176 5178 5180 5182 5184 5186 5188 5191 5193 5196 5199 5203 5206 5210 5214 5218 5222 5227 5231 5235 5239 5242 5245 5249 5253 5256 5260 5264 5268 5272 5275 5279 5283 5287 5291 5295 5299 5304 5308 5312 5317 5322 5327 5332 5338 5343 5349 5354 5360 5367 5373 5379 5383 5388 5394 5401 5407 5412 5418 5424 5430 5436
5188 5184 5182 5179 5177 5176 5174 5173 5173 5173 5173 5174 5175 5176 5179 5181 5183 5185 5188 5190 5193 5195 5198 5202 5205 5209 5213 5217 5221 5225 5229 5233 5237 5240 5243 5247 5251 5254 5258 5261 5265 5269 5273 5277 5281 5284 5288 5292 5296 5300 5304 5308 5313 5318 5323 5328 5333 5338 5343 5349 5354 5360 5366 5371 5377 5382 5387 5393 5400 5405 5411 5417 5422 5428
5191 5187 5183 5181 5179 5177 5176 5175 5174 5174 5174 5174 5175 5175 5177 5179 5181 5183 5186 5189 5192 5195 5198 5201 5204 5208 5211 5215 5219 5223 5227 5230 5234 5238 5241 5245 5248 5251 5255 5258 5262 5266 5270 5274 5277 5281 5285 5289 5293 5296 5301 5305 5310 5314 5319 5324 5329 5333 5338 5343 5348 5354 5359 5364 5370 5375 5380 5386 5392 5398 5404 5409 5415 5420
5194 5189 5185 5182 5180 5178 5177 5176 5175 5175 5175 5175 5175 5176 5176 5177 5179 5181 5184 5187 5190 5194 5197 5200 5203 5206 5210 5213 5217 5221 5224 5228 5232 5235 5239 5242 5246 5249 5252 5256 5259 5263 5267 5270 5274 5278 5281 5285 5289 5293 5297 5301 5306 5311 5315 5319 5324 5329 5333 5338 5343 5347 5352 5357 5363 5369 5374 5379 5384 5390 5396 5401 5407 5412
5196 5192 5188 5185 5182 5180 5178 5177 5177 5176 5176 5176 5176 5176 5177 5177 5178 5180 5183 5186 5189 5192 5195 5199 5202 5205 5208 5211 5215 5218 5222 5226 5229 5233 5236 5240 5243 5246 5250 5253 5257 5260 5264 5267 5271 5274 5278 5282 5286 5290 5294 5298 5303 5307 5311 5315 5320 5324 5329 5333 5337 5342 5346 5351 5357 5362 5367 5372 5377 5382 5387 5393 5398 5404
5199 5194 5191 5187 5184 5182 5180 5178 5178 5177 5176 5176 5176 5177 5177 5178 5179 5180 5182 5185 5188 5191 5194 5197 5200 5203 5206 5209 5213 5216 5219 5223 5226 5230 5233 5237 5240 5243 5247 5250 5254 5257 5260 5264 5267 5271 5275 5279 5283 5287 5291 5295 5299 5303 5307 5311 5315 5319 5324 5328 5332 5337 5341 5346 5350 5355 5361 5365 5370 5375 5380 5385 5391 5395
5201 5197 5194 5190 5187 5184 5181 5179 5178 5178 5177 5177 5177 5177 5178 5178 5179 5180 5182 5184 5187 5189 5192 5195 5198 5201 5204 5207 5210 5213 5217 5220 5223 5227 5230 5233 5237 5240 5243 5247 5250 5254 5257 5260 5264 5267 5271 5275 5279 5283 5287 5291 5295 5298 5302 5306 5311 5315 5319 5323 5327 5331 5336 5340 5345 5350 5354 5359 5363 5368 5372 5377 5381 5385
5204 5200 5196 5193 5189 5186 5183 5181 5179 5178 5178 5177 5177 5178 5178 5179 5180 5181 5182 5184 5186 5188 5191 5193 5196 5199 5202 5205 5208 5211 5214 5217 5220 5223 5226 5230 5233 5236 5239 5242 5246 5250 5253 5257 5260 5263 5267 5271 5275 5279 5283 5286 5290 5294 5298 5303 5307 5310 5314 5318 5322 5326 5331 5336 5340 5344 5348 5352 5356 5360 5365 5369 5373 5376
5207 5203 5199 5196 5192 5189 5186 5183 5181 5179 5178 5178 5178 5178 5178 5179 5180 5181 5182 5183 5185 5187 5189 5192 5194 5197 5200 5202 5205 5208 5211 5214 5217 5220 5223 5226 5229 5232 5235 5238 5241 5245 5249 5253 5256 5259 5263 5267 5270 5274 5278 5281 5285 5289 5293 5297 5301 5305 5309 5314 5318 5322 5326 5330 5334 5338 5343 5347 5350 5354 5358 5362 5366 5370
5210 5206 5202 5198 5195 5192 5188 5185 5183 5180 5179 5178 5178 5178 5178 5179 5179 5180 5182 5183 5184 5186 5188 5190 5192 5195 5197 5200 5202 5205 5208 5210 5213 5216 5219 5222 5225 5228 5231 5234 5237 5240 5244 5248 5251 5255 5258 5262 5265 5269 5272 5276 5280 5284 5289 5292 5296 5299 5304 5308 5313 5317 5321 5324 5328 5333 5337 5341 5345 5349 5353 5357 5360 5364
5213 5209 5205 5201 5197 5194 5191 5188 5185 5182 5180 5179 5178 5178 5178 5179 5179 5180 5181 5182 5183 5185 5186 5188 5190 5192 5194 5197 5199 5201 5204 5207 5209 5212 5215 5217 5220 5223 5226 5229 5232 5235 5239 5242 5246 5250 5253 5257 5260 5263 5267 5271 5275 5279 5284 5287 5290 5293 5298 5302 5306 5310 5314 5318 5322 5327 5331 5335 5339 5343 5347 5351 5354 5358
5215 5211 5208 5204 5200 5197 5193 5190 5187 5185 5182 5180 5179 5178 5178 5178 5179 5179 5180 5181 5182 5183 5185 5186 5188 5190 5192 5194 5196 5198 5200 5203 5205 5208 5210 5213 5215 5218 5221 5224 5227 5230 5233 5237 5240 5244 5247 5251 5255 5258 5261 5265 5270 5274 5277 5280 5284 5288 5292 5296 5300 5304 5308 5312 5316 5320 5324 5329 5333 5338 5341 5345 5349 5353
5218 5213 5209 5206 5203 5199 5196 5192 5189 5187 5184 5182 5180 5178 5178 5178 5178 5178 5179 5180 5181 5182 5183 5184 5186 5188 5189 5191 5193 5195 5197 5199 5201 5204 5206 5208 5211 5213 5216 5219 5222 5225 5228 5231 5234 5238 5241 5245 5248 5252 5255 5259 5264 5267 5271 5274 5278 5282 5286 5290 5294 5298 5302 5305 5309 5314 5318 5323 5327 5331 5335 5339 5343 5347
5220 5215 5211 5208 5204 5201 5198 5195 5192 5189 5186 5184 5182 5180 5178 5177 5177 5177 5178 5178 5179 5180 5181 5182 5183 5185 5186 5188 5190 5191 5193 5195 5197 5199 5201 5204 5206 5208 5211 5214 5216 5219 5222 5225 5228 5232 5235 5238 5241 5245 5248 5252 5257 5260 5264 5268 5272 5275 5279 5283 5288 5292 5295 5299 5303 5308 5312 5316 5320 5324 5328 5331 5336 5340
5222 5217 5213 5209 5206 5203 5200 5197 5194 5191 5188 5186 5183 5181 5179 5178 5177 5176 5176 5176 5177 5178 5178 5179 5180 5182 5183 5184 5186 5188 5189 5191 5193 5195 5197 5199 5201 5203 5206 5208 5211 5213 5216 5219 5222 5225 5228 5231 5235 5238 5241 5245 5249 5253 5257 5260 5264 5268 5272 5276 5280 5284 5288 5292 5296 5301 5304 5308 5311 5315 5319 5323 5328 5332
Wind_Speed
48 49 49 50 50 51 54 56 59 62 63 65 69 71 75 78 79 77 76 73 71 72 72 70 68 70 75 79 81 80 76 73 74 78 82 83 81 81 84 84 86 91 92 90 90 90 89 89 87 86 84 83 88 94 97 96 94 92 90 88 86 84 85 86 81 70 64 60 57 59 62 62 64 65
45 45 43 43 44 44 46 48 52 57 59 62 65 68 71 75 78 79 78 76 73 73 73 71 69 69 72 77 81 81 79 75 73 75 78 82 83 81 81 83 84 87 91 90 89 89 89 88 87 86 84 82 84 90 95 96 96 94 91 86 84 85 85 84 85 84 79 68 56 53 56 59 64 64
43 42 40 40 40 39 39 42 45 50 54 57 60 65 68 71 76 79 80 78 75 74 73 72 70 70 70 74 79 82 81 78 74 73 75 78 82 82 81 82 83 84 88 89 88 88 88 87 87 86 84 82 82 86 91 95 96 96 93 86 81 84 87 84 80 80 79 72 61 53 47 50 62 66
41 40 38 37 36 35 34 36 39 43 48 52 55 60 65 68 72 77 80 79 77 75 74 73 72 71 70 72 77 80 82 81 76 73 73 75 78 81 80 81 82 82 84 87 87 87 88 87 87 85 84 82 80 83 88 92 95 96 95 89 82 83 87 88 83 77 76 74 71 67 55 46 54 64
40 37 36 35 34 33 32 32 35 38 42 47 50 54 60 65 69 75 78 79 78 76 75 75 73 72 72 71 73 77 81 82 77 73 73 73 74 77 79 80 81 81 82 84 85 86 87 87 86 85 83 82 80 80 84 90 94 95 95 92 87 83 84 87 87 83 78 75 72 73 69 57 51 54
38 35 33 33 32 32 32 32 33 35 37 41 45 49 54 59 64 71 76 78 78 77 76 76 74 73 72 71 71 74 78 81 79 74 72 73 72 73 76 78 80 81 80 81 83 84 85 86 86 84 82 81 80 79 81 87 92 94 94 93 90 86 82 83 86 86 82 76 69 64 64 64 59 51
35 32 31 32 31 30 30 30 29 31 32 35 39 44 48 52 58 66 74 77 77 77 77 76 75 73 72 70 70 71 75 79 79 74 71 71 71 71 73 75 77 80 80 79 81 83 84 84 84 83 81 80 79 78 79 83 89 93 93 92 91 87 84 84 86 85 81 76 71 63 58 63 65 56
33 30 30 31 30 28 27 25 25 25 26 29 32 38 43 47 52 60 70 76 77 77 78 76 75 74 72 69 68 69 72 76 78 75 71 69 69 69 71 73 74 77 79 78 78 81 83 83 83 82 81 79 79 78 78 80 85 90 93 92 91 88 85 85 86 85 82 77 74 71 66 64 63 58
32 30 30 30 28 25 22 20 19 18 19 22 25 30 37 41 46 54 64 73 76 77 78 76 75 74 71 68 67 68 70 73 76 75 71 69 68 68 69 71 72 73 76 77 76 78 81 82 81 81 80 79 79 78 78 79 81 86 90 91 92 90 85 82 82 83 83 80 76 74 72 69 65 60
31 30 30 30 27 22 18 14 12 12 13 15 18 23 30 36 42 49 59 69 75 76 76 75 74 73 71 68 66 67 68 71 74 75 73 69 68 67 67 68 70 71 73 75 74 75 78 80 80 79 79 79 79 78 78 78 79 82 86 90 92 92 86 80 79 81 81 79 76 73 70 66 62 59
32 31 31 29 25 19 14 11 8 7 6 8 12 18 24 31 38 45 54 64 72 75 74 74 74 72 71 69 66 66 68 70 73 75 73 70 68 66 65 66 68 69 70 72 73 73 75 77 78 77 77 78 78 78 77 77 78 78 82 86 89 91 90 83 78 80 81 79 76 73 69 65 61 56
32 32 31 28 22 15 11 10 7 4 2 3 6 11 18 25 33 41 50 59 67 71 72 72 74 73 71 69 67 66 66 68 71 74 73 70 68 67 66 65 66 67 69 70 71 71 73 75 76 76 76 77 77 77 77 76 76 76 78 81 83 86 89 86 81 79 79 78 76 73 71 69 65 59
32 32 29 26 20 13 9 8 7 5 1 2 3 6 11 19 28 37 46 54 62 67 70 70 72 72 70 69 66 65 65 66 69 72 73 71 68 67 66 66 66 66 67 69 69 69 70 72 74 74 75 76 76 77 76 75 75 75 76 79 80 82 86 86 82 81 80 78 76 74 73 72 68 63
31 30 28 25 18 11 6 8 9 7 3 1 1 3 7 14 23 32 41 49 57 63 67 69 70 70 69 67 64 63 62 64 67 71 72 71 69 68 67 66 65 64 65 67 67 67 68 70 72 73 73 75 76 76 76 74 74 74 76 80 81 81 81 81 80 81 82 80 78 76 75 74 71 67
29 29 28 24 15 8 4 8 11 9 5 3 3 3 4 10 17 26 35 44 52 59 64 68 70 69 67 65 62 60 59 61 64 68 71 71 69 68 67 65 64 63 62 64 65 65 66 67 69 71 72 73 75 76 76 74 74 74 77 82 81 78 78 77 76 79 81 81 79 78 78 77 76 74
28 27 27 23 13 4 3 9 13 10 6 7 9 10 10 8 9 18 28 38 48 56 62 66 68 66 64 61 58 57 57 57 60 64 68 71 69 67 66 65 63 62 61 62 63 63 63 65 66 68 71 72 74 76 77 76 74 74 79 85 81 77 78 78 76 77 80 81 80 79 79 79 78 78
27 26 26 22 12 2 7 13 15 11 9 11 13 14 15 12 8 10 20 32 43 52 59 62 63 62 60 58 55 54 54 55 56 60 64 68 69 67 65 64 63 62 62 62 62 62 62 63 64 65 68 70 73 76 77 77 75 74 81 88 83 77 78 80 79 80 82 83 82 81 81 80 79 79
26 26 25 20 10 4 13 17 15 13 13 13 11 11 12 13 12 12 16 26 38 49 55 57 57 57 56 54 53 52 52 52 53 56 61 65 67 66 65 64 63 61 61 61 62 62 62 63 63 64 66 68 71 75 77 77 76 75 82 90 86 79 79 80 80 82 84 85 84 83 82 81 81 80
25 25 24 19 9 6 16 18 15 15 16 13 12 12 11 13 15 14 15 23 34 45 52 53 53 52 50 50 50 50 50 50 51 53 57 61 64 65 65 65 63 61 59 59 61 62 62 63 64 64 65 67 70 73 76 78 77 76 83 92 89 82 80 80 79 81 83 84 84 84 83 82 82 81
25 23 22 18 8 9 18 18 16 16 15 14 15 14 10 12 16 16 16 21 30 40 47 49 49 49 47 46 48 48 47 48 49 51 54 58 60 62 64 65 63 60 58 58 59 60 61 62 64 64 65 66 68 71 74 76 77 76 82 93 95 87 82 82 80 81 82 83 83 83 83 82 81 81
25 23 20 18 7 9 18 18 17 16 15 17 19 16 13 16 19 20 20 22 27 36 42 45 47 46 45 45 46 46 46 46 47 49 52 55 57 58 61 63 62 60 58 57 58 59 60 61 62 63 64 65 67 70 72 74 77 77 80 91 98 94 87 83 82 82 82 82 83 84 84 81 79 78
25 23 21 18 9 8 18 18 16 16 18 21 21 18 19 22 23 24 24 24 28 34 38 42 45 44 44 44 45 44 44 44 44 47 51 53 54 55 57 59 60 59 58 57 57 58 60 60 61 62 63 64 67 69 71 72 76 78 79 86 97 100 93 86 84 84 83 82 82 82 82 81 78 76
26 24 21 19 13 3 17 20 17 18 21 23 22 21 23 24 25 26 27 26 30 34 36 40 42 43 44 44 43 41 41 40 41 44 49 51 50 51 54 56 58 58 57 56 57 58 59 60 61 62 62 63 65 68 69 71 74 77 78 81 91 100 97 88 85 86 85 83 83 81 79 78 77 76
26 25 22 19 16 4 13 20 19 19 23 25 25 25 26 27 28 29 29 30 33 35 37 38 40 43 44 42 41 39 38 37 37 41 46 48 47 47 49 52 56 57 56 55 55 56 58 59 60 61 62 62 63 65 67 68 71 75 77 77 83 94 98 91 85 87 87 85 83 81 78 77 77 76
26 26 23 20 17 10 5 19 22 21 25 27 27 28 29 30 31 32 32 34 37 39 39 39 40 42 42 41 40 39 37 35 35 39 43 46 46 45 46 48 52 54 55 54 54 55 56 58 59 60 61 61 62 63 64 66 68 72 76 76 77 85 94 93 87 86 88 87 84 81 79 77 77 77
26 25 23 20 18 15 3 14 23 24 26 29 29 30 31 31 33 34 35 37 41 42 42 41 41 41 41 40 40 40 37 35 36 39 42 44 45 45 45 45 48 51 52 53 53 54 54 56 57 58 59 60 61 62 62 63 66 69 72 74 74 78 88 94 91 87 87 88 87 85 81 78 75 76
26 23 23 21 18 16 9 7 21 26 26 29 31 31 32 33 34 34 35 39 43 45 44 43 41 41 41 41 42 42 39 36 37 38 41 44 45 45 45 45 46 48 50 51 51 52 53 54 55 56 57 59 60 60 60 61 64 67 70 71 72 74 82 90 91 88 87 87 87 87 86 83 78 76
26 23 21 21 18 16 13 3 14 25 27 29 31 32 33 34 34 35 36 39 44 46 45 44 42 42 42 42 43 44 41 38 38 38 40 42 44 45 46 46 47 48 49 50 51 51 52 53 53 54 55 57 58 58 58 59 61 65 68 70 69 70 76 84 89 88 86 86 86 87 89 88 84 80
28 23 21 21 19 15 13 9 4 19 26 29 31 33 33 34 35 35 36 39 42 45 46 45 44 43 42 43 44 45 44 40 38 39 39 41 43 44 45 46 47 48 50 51 51 51 52 52 53 53 53 54 55 56 56 57 58 62 66 69 69 68 71 78 85 86 84 84 86 88 89 88 85 83
30 25 22 22 20 16 13 12 5 7 19 27 30 32 33 33 34 35 36 37 41 45 46 46 44 43 43 43 44 45 45 43 40 39 40 40 41 43 44 45 47 48 50 51 52 53 53 52 53 53 53 53 53 53 54 55 56 59 63 67 70 70 69 73 79 81 80 81 84 86 87 86 84 83
35 27 21 18 18 17 14 12 9 3 7 18 26 30 33 33 33 33 33 35 39 44 47 47 45 44 43 44 45 46 46 45 43 41 40 40 41 42 43 44 46 47 49 51 52 53 54 53 53 53 53 53 53 53 53 53 54 56 59 63 68 70 70 70 74 76 76 78 80 81 83 84 83 83
39 31 22 15 13 14 14 12 10 7 2 7 16 23 28 31 32 32 32 34 37 42 46 47 46 45 44 44 45 46 47 47 46 44 42 41 41 42 43 44 45 46 47 49 51 53 54 54 54 54 54 54 53 53 52 52 52 53 55 58 62 67 70 70 72 73 74 75 77 79 80 81 82 84
42 36 29 21 15 13 12 12 10 8 5 2 6 13 19 25 29 31 32 34 36 40 45 47 48 46 45 45 45 46 47 47 48 47 44 42 42 42 43 43 44 44 46 47 49 51 53 54 55 55 55 55 54 53 52 51 51 51 52 54 57 61 65 68 70 71 72 73 75 78 80 80 81 83
44 40 35 28 21 15 11 10 9 7 5 4 3 6 11 16 23 29 32 34 36 39 42 46 48 48 47 46 46 46 47 48 48 48 47 45 43 42 43 44 44 44 44 45 46 48 50 52 54 55 55 55 55 54 53 51 50 50 50 52 53 55 59 62 65 67 69 70 72 75 79 81 81 82
44 42 38 33 27 19 13 9 8 7 5 4 3 4 7 11 16 23 29 32 35 37 40 44 47 48 48 47 46 46 47 47 47 48 48 47 45 43 43 44 44 44 44 44 45 46 47 49 52 53 55 55 55 55 54 53 52 51 50 50 51 53 55 57 59 62 64 66 68 70 74 79 82 83
44 42 40 36 31 25 17 10 7 6 5 3 3 3 5 8 12 18 24 29 33 35 37 41 44 46 48 48 48 47 47 47 47 47 48 48 48 46 44 43 44 44 45 45 45 45 46 47 49 50 52 54 55 56 56 55 54 53 52 51 51 51 52 54 56 58 60 61 63 65 68 72 76 79
44 42 40 38 34 29 23 15 9 5 4 3 2 3 4 6 10 14 20 25 30 33 35 38 41 43 46 47 48 48 47 47 47 47 47 47 48 49 48 46 44 44 45 45 45 45 46 46 47 48 50 51 53 55 56 57 56 56 55 54 53 52 52 52 53 54 56 57 59 60 61 64 67 69
44 42 40 38 36 33 28 21 14 7 4 3 3 4 5 6 8 11 16 22 26 30 33 35 38 40 43 44 46 47 47 46 46 46 46 47 47 48 49 50 49 47 45 45 46 46 47 47 47 47 48 49 51 53 54 55 57 58 58 57 56 55 54 53 53 53 53 54 55 56 57 58 60 61
43 42 39 37 36 34 31 27 20 12 6 4 4 4 6 7 8 10 14 18 23 27 30 32 35 37 40 42 43 44 45 45 45 45 45 46 46 47 48 50 51 51 50 48 47 47 47 48 48 48 48 49 50 51 52 53 55 57 58 59 59 58 57 56 55 55 54 54 54 54 54 54 55 56
41 40 39 37 35 34 33 30 26 20 12 6 5 6 7 8 10 11 13 15 19 24 27 30 33 35 37 39 41 42 43 43 44 44 44 45 45 46 47 49 50 51 52 52 51 50 49 49 49 49 49 50 50 51 51 52 53 54 56 58 59 60 60 60 59 58 57 56 56 55 55 55 54 54
42 39 39 37 35 33 32 31 28 25 20 12 6 6 8 9 11 12 14 16 18 21 24 28 31 33 35 37 39 40 41 42 43 43 44 44 45 45 47 48 49 50 51 53 53 53 53 52 51 51 50 50 51 51 51 52 53 54 55 56 58 59 60 61 62 61 60 60 59 58 58 58 57 56
45 41 38 37 36 33 32 31 29 27 24 20 12 6 7 10 11 13 15 17 18 20 22 25 28 31 33 35 37 39 40 41 42 43 43 44 44 45 46 47 49 50 51 51 52 54 55 55 55 54 53 52 52 51 52 53 54 54 55 56 57 58 59 60 62 63 63 62 62 61 61 60 60 59
48 44 39 36 35 34 31 30 29 27 26 24 20 13 7 7 11 13 14 16 19 21 23 24 26 29 31 33 35 37 39 40 41 42 43 44 44 45 46 46 47 49 50 51 52 52 53 55 56 57 57 56 55 54 53 53 54 54 55 56 57 57 58 60 61 62 63 64 64 64 63 63 63 62
50 47 42 38 35 33 32 30 28 26 25 24 22 20 15 8 7 11 15 16 18 20 23 25 27 28 30 32 34 36 37 39 40 41 42 43 44 45 46 46 47 48 49 50 52 52 53 53 54 56 57 58 58 58 57 56 55 55 56 57 57 57 58 59 60 61 62 63 64 65 66 66 65 65
51 48 45 40 36 33 32 30 28 27 25 23 22 21 19 15 10 7 11 15 18 20 22 24 26 29 30 32 34 35 37 38 39 41 42 43 44 45 46 46 47 48 49 50 51 52 53 54 54 55 55 56 57 58 59 59 59 58 58 58 58 58 58 59 60 61 62 63 64 65 66 67 68 68
Wind_Direction
285 282 279 276 272 267 263 259 257 253 249 246 244 240 237 235 233 231 227 224 224 225 224 223 222 222 220 218 220 220 218 219 223 226 225 225 225 225 224 222 219 217 217 218 219 219 220 220 221 221 221 220 219 218 218 219 221 223 225 225 223 224 226 227 228 227 227 230 229 224 222 221 219 217
291 288 286 282 277 272 266 261 257 254 249 245 243 240 237 234 232 230 227 223 221 222 222 221 220 221 220 218 218 218 216 216 219 223 225 225 224 225 224 223 221 218 217 217 218 219 219 219 220 220 220 219 219 219 218 218 220 222 224 225 224 223 226 228 229 232 234 233 229 225 226 226 222 216
295 294 292 288 283 277 271 264 258 254 251 246 242 239 236 233 230 228 226 223 220 220 219 219 219 220 221 219 217 217 216 216 217 219 222 225 225 225 225 224 222 219 217 216 217 218 219 219 219 220 220 219 219 218 217 217 219 221 223 224 224 224 226 228 229 233 234 231 227 225 228 232 224 214
299 300 298 294 289 283 276 268 261 255 252 248 243 238 235 231 228 226 224 221 219 218 217 217 217 218 220 219 217 216 216 216 218 218 219 223 224 224 225 224 223 220 217 217 217 217 218 218 219 219 219 219 219 218 217 216 218 220 221 223 225 225 226 227 228 231 232 231 230 228 229 235 223 211
304 305 303 298 295 290 283 275 267 259 253 249 245 240 235 231 227 224 223 219 217 217 215 214 215 216 218 219 217 216 216 217 219 218 217 220 222 223 224 224 223 221 219 217 217 217 218 218 218 219 219 219 219 218 217 216 217 219 220 222 224 226 227 228 229 230 230 231 233 233 234 235 221 211
309 310 307 302 299 295 290 282 274 264 256 250 245 241 236 231 226 223 221 218 215 215 214 212 213 215 217 218 217 216 216 217 218 217 216 218 220 221 222 223 222 221 220 218 217 217 217 218 219 218 219 219 218 218 218 216 216 218 220 221 222 225 225 227 229 230 230 231 232 233 232 227 220 219
314 314 311 307 304 301 294 287 278 268 260 251 244 240 236 231 226 222 219 216 213 212 213 211 210 213 215 216 217 216 215 216 217 217 215 215 218 219 220 222 222 221 220 218 217 217 217 218 219 219 218 218 218 218 218 217 217 217 219 220 221 222 223 224 227 229 229 228 227 225 221 218 220 227
319 319 316 312 310 306 298 289 280 271 263 253 243 237 233 229 225 221 217 214 211 210 211 210 208 210 212 214 216 216 214 215 216 216 214 213 215 218 219 220 221 221 221 219 217 217 217 218 219 219 219 218 218 218 218 218 218 218 218 220 220 220 222 223 225 228 228 228 227 225 224 223 227 233
323 324 321 318 317 311 300 289 281 273 266 257 243 234 230 225 221 219 215 213 209 208 209 208 206 208 210 211 215 216 214 214 214 214 214 213 213 216 218 219 220 220 220 220 218 217 217 218 218 219 219 218 218 218 218 218 219 219 218 219 220 219 221 223 225 227 228 229 229 230 231 232 234 236
326 329 327 325 322 313 299 286 276 271 269 260 245 233 227 222 217 215 213 211 208 206 207 207 205 206 207 209 212 214 213 213 213 213 212 212 212 214 216 218 219 220 219 220 219 217 217 218 219 219 219 218 217 217 218 218 219 220 219 219 220 220 219 221 224 227 229 230 230 231 233 233 232 232
330 332 331 329 325 315 297 274 254 258 273 266 248 233 225 220 215 211 211 209 206 205 205 204 204 204 205 207 209 212 213 212 211 211 211 211 211 212 214 217 219 219 219 219 219 217 217 218 219 219 218 218 217 217 217 218 218 219 219 219 221 222 220 220 223 227 229 230 230 231 231 228 225 226
332 334 334 331 326 317 294 261 231 217 266 278 251 231 224 220 214 209 208 207 205 203 202 202 202 202 203 205 207 210 212 211 211 211 210 210 210 211 213 215 218 219 218 218 218 218 217 217 218 218 218 217 216 216 217 217 218 218 218 217 219 222 223 221 221 225 228 228 228 229 228 225 223 222
335 336 337 334 329 319 292 247 207 167 142 295 255 224 221 218 212 208 205 204 203 202 201 200 201 202 203 204 206 209 210 211 210 210 210 210 210 210 212 214 216 218 218 218 218 218 217 217 217 217 218 217 216 215 216 216 217 217 216 214 215 220 224 223 220 222 226 228 228 228 227 225 222 220
337 339 339 338 333 323 289 219 187 152 132 237 225 201 215 212 208 206 204 201 200 200 199 198 199 201 203 203 205 207 209 210 210 210 209 209 210 210 211 212 215 217 218 218 218 218 218 217 217 217 217 217 216 215 215 215 216 216 214 211 212 215 221 224 222 221 224 227 228 228 227 225 223 220
341 342 342 340 336 325 274 201 175 148 137 156 123 125 178 192 198 202 201 199 198 198 198 197 197 199 201 202 204 206 208 210 211 210 209 209 210 211 211 211 213 215 217 218 218 218 218 218 217 217 216 216 216 215 215 214 214 215 212 208 210 213 215 219 221 220 222 224 226 228 228 227 227 224
346 346 345 342 337 315 218 176 159 141 130 122 107 104 113 129 171 196 198 197 196 196 197 197 197 198 200 201 203 205 206 208 210 210 209 209 209 211 211 211 212 214 214 216 217 218 218 218 218 217 216 216 215 214 215 214 213 213 210 206 209 212 212 213 217 220 221 222 225 227 228 228 228 226
351 350 348 345 337 269 174 155 144 133 126 122 114 108 107 109 128 173 189 193 193 194 195 195 196 197 199 201 202 204 206 207 209 210 210 209 209 211 212 211 212 213 213 214 216 217 217 217 217 217 217 216 215 214 214 214 213 212 209 206 207 210 209 208 212 218 221 222 223 225 227 227 226 225
356 354 351 350 340 212 166 152 140 132 133 136 138 135 132 140 147 155 177 188 190 192 193 193 195 197 199 200 202 204 205 206 208 210 210 210 210 211 212 212 212 213 213 214 215 216 216 216 215 216 216 216 215 214 214 214 213 212 208 206 207 207 205 206 209 213 217 220 221 223 225 225 224 223
2 357 354 354 345 190 167 154 144 141 142 145 149 150 153 165 167 165 174 182 185 189 190 190 194 196 197 199 201 203 204 204 206 208 209 209 209 211 213 213 213 213 213 214 215 216 216 216 216 216 217 216 216 215 214 214 213 212 209 207 207 206 203 204 207 210 213 216 219 222 221 220 220 220
9 2 357 358 351 184 169 158 152 151 154 153 146 140 149 167 167 159 158 169 180 186 187 188 192 194 194 197 200 202 203 202 203 206 207 207 208 210 212 214 214 214 214 214 214 215 216 216 217 217 217 217 217 216 215 214 214 213 210 209 209 207 204 205 207 208 210 213 215 217 217 216 216 217
12 8 2 4 4 182 174 164 159 157 155 152 146 140 142 149 150 144 144 155 171 180 184 186 190 193 194 196 199 200 201 201 201 203 204 204 205 208 211 213 215 215 215 214 214 214 215 216 216 217 217 217 217 216 216 215 214 214 211 210 211 211 209 208 209 209 211 213 213 213 212 213 213 215
12 11 9 10 12 185 181 172 166 161 153 148 148 148 145 145 144 142 144 152 164 173 180 185 188 192 193 195 198 199 198 198 199 201 202 202 204 205 208 211 213 214 215 214 214 214 215 215 216 216 216 216 217 217 217 216 215 215 213 211 212 214 214 213 211 211 212 214 214 212 211 212 214 215
11 13 15 15 14 189 187 180 172 165 157 151 152 154 152 150 149 147 148 155 162 168 176 183 188 191 193 195 197 196 195 195 197 199 200 201 202 203 205 207 209 211 212 213 213 213 214 215 215 216 216 216 217 217 217 216 215 215 215 213 212 215 217 215 213 212 212 213 215 214 213 214 217 218
10 13 18 20 17 11 192 188 179 168 162 158 157 159 157 156 157 155 156 161 165 169 174 180 187 191 192 194 195 193 190 190 193 197 200 201 201 201 203 205 207 209 210 211 211 212 213 214 215 216 216 216 217 218 218 218 216 215 215 215 214 215 217 216 213 211 212 213 213 214 213 212 215 218
8 11 17 23 21 17 195 191 184 173 167 164 162 163 162 161 163 163 164 167 169 171 175 179 186 190 191 192 192 188 184 186 190 194 198 200 200 199 200 202 204 206 208 209 210 211 213 214 215 216 216 216 217 218 219 218 217 215 215 215 215 215 216 217 214 211 212 213 212 211 210 208 210 215
6 8 14 21 23 20 21 193 188 179 172 170 168 167 167 168 168 169 172 174 174 174 176 180 186 190 189 190 188 183 182 186 190 192 195 198 198 198 198 199 200 202 204 207 209 211 212 214 215 216 216 217 217 218 219 218 217 216 215 216 216 215 215 217 216 212 211 212 212 211 209 207 207 212
5 5 12 19 22 21 23 187 191 186 180 176 175 173 173 175 174 174 178 180 178 176 177 181 186 188 188 188 186 182 183 188 189 191 195 197 198 198 197 197 197 198 200 202 205 208 210 212 214 215 216 217 217 218 218 218 217 216 216 216 217 217 215 217 218 216 211 211 213 213 213 211 210 213
6 4 11 19 21 21 22 46 191 192 189 183 181 181 180 181 181 181 184 185 182 179 180 183 187 189 188 188 187 184 184 187 189 191 194 197 199 199 198 197 197 197 198 199 201 204 206 208 211 213 215 217 218 218 218 218 217 217 217 217 218 218 216 217 220 220 216 212 212 214 215 216 216 217
8 4 9 17 22 24 23 25 183 198 198 193 189 188 188 188 188 189 189 187 185 183 183 185 190 192 190 189 189 187 186 187 189 191 194 197 200 201 200 199 198 197 198 199 200 201 203 205 206 209 211 214 217 219 219 218 217 216 217 217 218 218 218 217 219 222 220 217 214 214 214 216 218 221
12 8 7 10 15 22 26 25 27 203 206 204 199 196 195 195 196 197 195 190 188 187 187 188 191 193 192 191 191 190 188 189 190 192 194 196 199 202 203 202 201 199 198 199 199 200 202 203 204 206 208 210 213 216 218 218 218 217 217 217 217 218 218 218 220 222 222 220 218 217 217 217 219 221
15 14 11 5 5 13 23 25 23 19 215 212 210 206 204 204 205 204 200 196 192 191 190 190 193 195 195 194 193 192 191 192 193 194 196 197 199 202 204 204 204 202 201 200 200 200 201 202 203 204 206 208 210 213 215 217 218 218 217 217 217 218 218 219 220 222 222 221 221 222 221 220 219 219
15 16 16 10 1 7 18 22 21 18 351 223 218 215 213 213 214 213 208 203 198 195 194 193 194 196 197 197 196 195 195 195 195 197 198 198 199 202 205 207 207 206 204 202 202 201 201 201 202 203 205 207 209 212 214 216 217 218 218 217 217 218 219 219 220 222 222 220 220 221 223 223 222 220
16 16 16 14 9 8 13 19 19 14 5 312 228 219 216 215 216 215 211 206 202 199 197 196 196 197 199 200 199 198 198 199 198 199 200 201 201 203 205 207 208 208 207 206 205 204 203 202 202 203 205 206 208 210 212 214 216 216 217 217 217 218 219 220 221 222 223 222 220 220 221 223 224 224
17 17 17 15 12 9 9 13 17 13 3 345 284 228 215 213 213 213 210 206 204 202 201 199 199 200 201 203 203 202 202 203 202 202 202 203 204 204 206 207 209 210 210 209 208 207 206 205 204 204 204 206 207 208 210 212 214 215 216 216 217 217 219 220 221 222 224 224 223 221 221 222 223 225
16 18 18 16 14 10 5 4 9 10 3 348 318 261 224 212 211 211 209 207 205 204 203 202 203 203 203 205 206 206 206 207 207 206 205 206 206 207 207 208 210 211 212 212 212 211 210 209 207 206 206 206 206 207 208 210 211 213 215 216 216 217 218 219 220 221 223 224 225 224 223 223 223 224
16 17 18 17 16 13 8 0 356 359 358 343 315 283 243 220 209 207 208 208 206 206 206 205 206 206 206 207 209 209 210 210 210 210 209 209 210 210 210 209 209 211 213 214 215 214 214 213 211 210 208 207 207 207 207 208 209 211 213 214 216 217 217 218 219 220 221 223 224 225 225 224 224 225
16 16 16 17 17 16 13 6 353 341 340 329 290 270 253 231 215 206 205 207 208 208 208 208 208 209 209 210 212 213 213 214 214 213 213 212 212 213 214 213 212 211 212 214 216 217 217 216 215 214 212 211 210 209 209 208 208 210 211 212 214 215 216 217 218 219 220 221 222 224 224 224 224 224
16 15 15 16 17 17 17 13 4 344 320 306 275 250 241 233 223 212 206 205 208 209 210 210 211 211 212 213 214 215 217 217 217 217 216 216 215 216 217 217 217 215 214 214 215 217 218 218 218 217 216 215 213 212 212 211 210 210 211 212 212 213 215 216 217 218 219 220 221 222 223 223 224 224
16 15 14 15 16 17 18 17 14 4 335 295 268 248 236 230 226 220 212 207 208 210 211 212 212 213 214 215 216 217 218 219 220 221 220 220 219 218 219 220 220 219 218 216 216 217 218 219 220 220 219 218 217 215 214 213 213 213 212 212 213 214 215 215 216 217 218 219 220 222 223 224 225 225
15 16 15 14 14 16 18 19 18 15 4 327 274 250 239 231 227 224 220 214 210 210 211 213 214 215 215 216 217 218 219 220 221 222 222 223 222 221 221 221 222 222 221 221 219 219 219 220 221 221 221 221 220 219 218 216 216 215 214 214 214 214 215 216 216 216 217 218 219 221 223 224 225 226
14 14 15 15 14 14 16 18 19 19 17 5 324 266 244 236 230 226 224 222 217 214 213 213 214 216 217 217 218 219 219 220 221 222 223 224 224 224 223 223 223 223 223 224 223 223 222 222 223 223 223 223 223 222 221 220 220 218 217 216 216 215 216 216 217 217 217 217 218 219 221 223 224 226
14 13 14 15 15 14 14 15 18 19 20 18 8 329 265 244 236 231 228 226 224 221 219 216 216 216 217 218 219 220 220 221 221 222 223 224 225 225 225 225 224 224 224 224 225 225 225 225 225 225 226 225 225 224 224 224 223 222 221 219 218 218 217 217 218 218 218 218 219 219 220 222 223 224
15 14 12 12 14 15 15 14 15 16 18 19 18 11 338 271 247 238 233 230 228 227 225 223 221 219 219 219 220 221 221 222 222 222 223 224 225 226 227 227 226 226 226 226 226 226 227 227 227 227 227 227 227 227 227 226 226 226 225 224 222 221 220 219 219 219 220 220 220 220 221 222 222 223
16 15 13 11 11 13 15 15 14 14 15 16 18 18 13 350 284 252 241 236 232 230 229 228 227 225 224 223 223 222 223 223 223 224 224 225 225 226 227 227 228 228 228 228 228 228 228 228 228 228 228 228 228 229 229 229 228 228 227 227 226 225 224 223 222 221 221 221 221 222 222 222 223 223
15 15 14 12 9 9 11 13 14 14 14 13 14 15 16 13 358 305 260 246 240 236 233 231 231 230 229 228 227 227 226 225 225 225 225 225 226 226 227 227 228 228 228 228 228 228 228 228 229 229 229 229 229 229 229 230 230 229 229 228 228 227 227 226 225 224 223 223 223 223 223 223 223 223